Theta_e
318 317 315 313 312 312 313 314 314 314 314 314 313 313 313 313 314 321 326 336 337 344 350 347 347 346 346 347 347 347 357 362 360 356 355 352 353 350 347 348 347 345 347 346 347
320 319 316 313 312 312 313 313 314 314 314 314 313 313 313 313 317 324 322 334 340 347 347 349 349 345 347 350 353 355 358 359 349 349 352 350 353 352 351 350 349 348 347 347 348
320 319 317 313 313 313 313 312 313 313 314 314 313 313 313 314 326 330 329 337 342 351 348 349 347 349 353 349 356 350 357 351 348 352 349 351 351 349 352 353 348 350 350 348 348
320 319 317 315 313 313 313 312 312 313 314 314 313 312 313 319 333 333 332 338 342 350 345 344 347 351 351 353 353 357 353 347 352 349 349 352 349 351 351 351 346 347 348 347 348
320 319 318 316 314 314 314 312 312 313 313 313 313 313 319 324 317 330 334 340 346 346 345 343 349 350 352 352 354 356 350 350 350 348 349 351 352 352 350 347 345 346 347 347 346
319 318 318 317 315 316 316 316 314 313 313 313 313 314 324 314 319 327 333 346 349 350 348 346 348 349 351 351 355 353 349 351 345 349 350 352 351 351 348 346 348 348 347 345 346
319 318 317 317 315 317 317 318 317 314 313 313 313 318 323 315 333 329 332 344 349 350 349 350 351 354 350 345 349 351 355 349 347 351 351 345 351 353 347 346 348 347 345 344 344
319 318 317 317 316 317 319 320 319 316 314 313 314 321 313 320 340 332 338 349 351 351 351 351 352 354 353 340 344 346 347 353 350 350 349 348 355 350 345 345 346 345 344 344 343
319 318 317 317 317 319 320 320 318 316 315 314 321 322 315 323 329 334 332 343 341 347 349 348 349 351 338 339 335 338 344 345 349 349 350 349 355 349 345 344 344 344 343 344 343
318 317 316 316 317 318 320 323 321 317 318 318 324 323 321 325 324 323 332 340 340 342 343 344 341 336 330 333 341 338 343 343 345 347 351 355 355 349 345 344 344 342 341 342 341
320 318 316 316 317 317 318 322 321 321 324 318 321 321 323 324 324 321 327 333 327 332 334 326 326 328 326 331 333 334 339 341 344 349 354 355 353 351 346 344 343 341 340 340 339
320 319 316 316 317 317 317 318 324 326 326 321 322 323 324 326 324 321 323 324 333 334 328 326 327 328 325 324 328 332 339 341 345 349 353 355 354 353 349 346 344 342 340 339 337
320 321 317 316 317 319 319 322 325 325 322 323 323 324 326 322 321 320 330 331 333 332 330 328 327 326 325 322 320 325 335 321 341 352 351 352 350 350 348 346 345 342 341 340 339
319 322 319 317 321 322 319 325 323 324 323 326 322 321 319 319 320 320 330 329 328 331 327 325 324 322 319 320 319 321 318 329 351 349 353 349 352 345 345 346 348 346 342 340 339
319 323 321 317 317 317 324 323 325 322 324 326 320 321 318 319 321 323 324 327 328 327 323 322 321 320 322 321 320 320 321 322 341 325 340 352 347 340 342 347 347 345 346 343 341
320 322 323 318 317 320 323 324 325 327 329 323 320 321 321 320 321 321 324 322 322 322 319 320 318 321 319 321 321 322 323 320 318 317 320 330 346 334 344 345 346 344 342 340 342
319 323 323 319 319 329 322 324 330 332 330 323 320 319 320 320 321 320 322 321 319 319 317 318 323 319 321 322 322 321 318 321 323 322 321 325 333 331 334 338 340 337 335 334 335
320 323 325 323 322 320 326 326 336 335 334 323 321 319 321 319 320 320 318 318 317 316 315 320 325 324 321 321 324 323 319 320 326 322 325 325 330 329 330 335 335 335 348 348 341
322 324 325 327 327 322 323 329 332 332 328 324 325 324 323 320 321 320 317 316 317 315 318 323 325 324 325 326 323 324 323 319 316 318 328 329 331 333 337 347 352 352 349 349 348
324 327 326 328 328 326 324 328 330 328 328 324 327 327 327 326 322 320 323 326 327 320 319 323 327 325 324 323 324 325 320 322 315 323 334 332 336 334 345 351 352 352 350 350 348
326 321 328 329 330 323 327 325 327 326 326 325 325 326 326 327 326 328 328 328 327 326 323 324 323 325 323 324 324 322 319 314 314 318 328 334 336 329 336 346 352 351 350 349 348
319 319 328 328 329 316 323 325 324 327 326 326 325 327 327 327 327 329 329 328 327 326 328 323 319 324 325 321 319 323 321 316 322 324 317 325 333 331 339 344 350 349 349 348 347
321 323 330 324 326 322 322 325 327 327 325 326 327 327 326 328 329 327 328 325 326 326 326 323 319 321 318 319 322 323 324 317 314 314 320 327 334 331 335 339 342 347 347 346 345
325 330 324 321 318 326 327 326 327 326 326 325 326 325 326 326 323 328 327 326 324 327 336 323 314 317 318 321 320 327 326 321 318 318 318 319 325 324 323 334 335 343 345 345 344
321 325 324 328 325 325 323 326 330 331 326 323 326 327 327 328 327 328 326 325 325 329 323 320 324 320 320 319 323 326 327 326 326 322 323 322 322 325 341 340 334 339 340 344 344
326 325 322 325 323 325 323 329 331 331 330 328 328 327 328 329 326 329 327 326 327 324 323 316 323 324 323 323 324 327 325 324 326 323 330 328 344 338 339 346 348 346 343 341 346
318 320 323 323 326 327 327 329 331 328 329 328 327 326 329 328 325 325 323 322 325 325 323 320 318 319 323 322 324 325 325 327 328 326 335 341 340 339 343 348 347 346 349 350 350
Wind_Speed
17 16 15 13 13 12 11 11 10 9 9 7 6 7 9 12 11 3 7 11 18 23 17 11 7 5 10 3 5 5 3 3 7 9 13 6 8 7 10 12 3 6 5 15 25
18 17 15 12 12 12 11 10 10 8 8 7 6 6 8 12 7 10 8 17 26 29 17 10 4 0 4 3 3 2 3 1 5 8 12 7 11 10 5 10 4 7 16 26 24
19 18 16 14 12 11 10 9 8 8 7 6 5 5 8 10 2 5 16 27 31 34 13 7 10 3 4 3 1 4 2 5 4 8 13 5 2 3 11 6 7 15 20 20 21
21 19 16 14 11 9 8 7 7 7 5 5 4 5 8 1 6 6 20 32 32 31 11 7 4 3 3 3 2 3 6 3 5 5 7 7 3 5 3 2 10 19 24 18 17
22 19 16 14 10 8 7 6 6 6 5 4 3 4 2 1 7 12 24 32 32 23 12 6 4 4 4 4 5 4 5 8 8 9 6 9 8 5 6 9 15 17 17 16 14
24 20 17 13 9 8 7 6 5 5 3 2 2 3 0 2 4 19 25 37 41 26 16 8 7 6 3 6 7 11 9 11 8 2 5 6 3 4 5 11 16 17 16 13 14
26 21 17 12 8 8 8 7 4 3 1 0 1 1 0 9 3 24 34 43 44 32 14 25 7 4 3 3 7 7 7 10 11 2 2 4 7 3 12 11 15 15 14 14 12
28 22 16 9 7 8 8 5 1 1 1 2 2 2 6 2 6 25 33 27 31 32 28 17 16 5 2 2 4 3 5 3 3 6 4 5 7 9 14 14 12 14 14 15 15
28 21 14 8 6 7 7 4 1 2 2 3 3 2 6 4 10 25 33 15 33 29 29 15 8 9 4 2 4 2 5 4 3 7 6 5 4 14 16 16 16 15 14 15 15
29 20 14 8 7 8 7 4 1 3 5 3 0 2 5 5 6 11 30 26 8 10 7 7 7 3 2 3 5 7 5 4 3 6 2 3 7 13 17 15 16 17 17 15 16
31 19 13 8 8 10 7 2 3 2 3 8 4 3 3 3 3 10 15 9 5 2 2 2 3 6 10 9 10 9 2 5 3 7 4 5 6 12 16 13 14 15 16 19 20
31 18 11 8 9 11 8 3 4 1 6 8 1 7 8 2 2 5 11 6 5 5 2 6 7 12 7 6 9 4 6 4 4 10 2 6 12 3 13 16 16 17 17 19 16
31 19 10 9 10 9 5 7 1 11 2 6 6 5 5 11 6 7 9 4 3 1 3 6 12 4 7 10 3 3 6 4 6 6 6 7 7 10 4 8 15 16 15 16 17
31 19 9 7 5 5 9 4 20 7 5 6 3 6 4 4 3 6 10 6 0 8 5 6 6 3 5 4 5 2 9 7 14 5 4 7 5 6 6 11 8 13 19 19 19
28 19 9 5 6 2 3 21 3 3 4 2 3 0 2 7 3 2 4 4 6 5 4 8 6 6 4 6 4 8 5 8 9 6 6 3 3 7 3 6 13 14 17 17 21
26 20 8 5 8 11 11 19 4 6 3 3 3 1 3 1 1 2 3 3 2 5 4 10 4 5 8 3 2 4 2 6 4 4 1 6 8 6 5 9 5 5 10 13 17
31 15 8 8 3 2 17 4 5 3 4 3 5 2 1 3 2 5 4 3 3 2 4 6 5 5 3 3 4 7 7 4 5 5 4 3 4 8 6 5 7 4 8 11 16
32 9 8 17 7 6 4 5 4 3 6 5 2 3 4 6 4 3 4 3 3 5 2 2 8 8 5 3 5 3 6 5 2 1 4 2 3 5 2 4 3 7 5 3 4
24 6 6 3 11 9 5 4 4 5 4 4 3 5 5 3 1 3 6 4 5 8 7 4 5 5 2 3 6 2 2 3 6 3 3 3 5 4 6 7 5 5 4 7 6
14 8 5 2 13 8 5 3 4 6 3 2 3 1 6 5 3 5 2 2 2 5 4 5 2 2 7 6 4 3 5 3 4 2 1 5 3 3 1 3 2 6 5 0 5
6 4 13 13 2 5 2 5 7 8 4 2 3 2 2 4 3 2 1 2 2 2 5 3 3 7 2 4 2 6 5 6 5 4 4 1 6 6 4 4 6 2 4 3 6
5 3 10 10 3 1 1 4 6 7 3 5 4 3 3 3 5 2 3 6 3 2 3 2 4 2 4 3 3 2 3 4 5 2 2 4 5 2 3 3 1 6 5 2 4
2 2 4 3 2 3 6 6 3 6 5 2 2 1 1 2 3 2 3 3 1 3 3 4 3 3 8 7 5 6 3 5 6 3 2 4 5 4 6 5 4 6 7 5 4
3 5 4 5 1 3 5 5 8 7 4 3 1 4 4 4 6 2 5 5 6 4 8 7 3 6 5 6 2 4 5 4 5 3 3 5 4 4 6 9 4 3 5 6 3
4 1 2 4 4 4 2 4 6 8 5 9 5 4 3 2 3 3 4 6 5 4 3 4 3 3 6 5 2 4 2 4 1 5 6 5 6 5 9 8 6 6 4 5 4
3 4 5 2 4 5 6 5 5 7 3 6 4 4 2 4 6 5 3 2 3 4 3 3 2 1 4 2 1 4 7 7 3 5 5 6 4 4 7 1 7 6 8 8 3
6 3 2 3 5 2 1 4 4 6 5 5 6 2 3 3 7 4 4 3 4 4 1 2 5 3 4 4 5 5 4 2 0 2 8 4 5 3 5 9 8 11 9 7 3
Wind_Direction
338 333 328 321 317 314 310 307 302 302 300 304 309 314 305 307 324 200 232 206 172 166 170 164 162 125 109 99 184 147 65 1 16 337 306 162 153 125 90 137 180 161 137 149 151
339 334 330 326 321 314 311 306 300 297 296 300 306 309 301 305 314 232 216 180 159 166 172 165 104 16 62 75 285 98 100 266 307 287 336 317 140 132 125 154 88 89 114 130 144
341 336 333 330 327 319 313 309 301 297 294 296 306 303 294 311 298 242 194 169 166 173 176 131 130 56 35 290 259 17 144 198 272 316 338 346 334 107 130 200 180 157 146 146 150
342 338 335 331 331 326 322 317 310 304 301 305 312 300 293 237 183 210 181 170 174 173 161 151 155 91 102 145 291 346 272 261 287 320 328 339 162 103 76 302 152 161 155 152 159
343 339 335 331 335 337 335 331 320 313 314 323 321 303 255 218 250 181 171 175 176 168 191 179 189 128 167 186 152 286 240 302 253 280 351 14 76 68 59 82 111 139 146 152 160
346 339 334 334 337 344 344 342 325 316 324 336 324 308 137 234 194 176 177 175 180 187 206 171 214 191 154 177 181 187 189 257 313 352 22 86 45 93 96 123 128 147 151 163 171
347 339 335 334 339 343 337 324 307 302 303 213 217 163 55 233 229 179 178 184 185 196 206 219 196 172 194 181 201 152 189 242 278 292 49 123 4 10 138 149 149 159 161 168 186
347 341 336 336 337 338 339 338 294 288 212 181 163 136 242 16 192 173 179 192 200 207 213 228 218 265 216 281 81 155 156 200 249 147 219 111 249 185 159 156 176 173 176 180 193
348 345 340 336 333 338 349 10 98 134 148 158 125 140 269 304 197 192 175 185 204 220 232 251 164 204 164 214 349 297 257 187 150 209 176 228 230 188 176 170 174 188 197 189 195
353 348 342 334 324 332 346 338 132 131 125 139 72 10 270 215 203 192 208 212 182 194 234 217 215 178 68 108 241 241 227 220 153 200 154 218 265 169 187 183 185 190 191 204 204
357 348 343 328 317 322 354 359 36 26 207 200 200 243 277 268 238 195 194 169 222 319 252 334 49 249 239 204 240 225 270 243 201 171 129 219 254 178 189 197 194 192 204 199 210
357 349 340 320 316 317 329 141 214 130 313 227 237 279 268 212 324 274 157 159 133 223 25 6 274 269 277 180 243 126 208 256 13 160 54 180 246 189 184 202 207 197 202 214 209
358 352 335 316 316 320 309 264 302 300 128 297 190 197 221 149 199 222 137 144 145 216 206 178 249 320 260 302 175 219 183 219 144 113 26 110 310 267 203 191 206 213 207 216 217
358 351 330 316 333 323 285 344 328 175 62 285 251 273 144 138 275 217 165 135 149 210 204 231 270 265 337 251 163 14 199 143 138 132 189 207 250 273 209 234 210 204 209 210 211
357 348 320 274 300 247 321 333 2 109 58 201 241 186 140 142 199 226 153 60 201 208 119 258 280 312 290 249 167 235 190 172 171 145 107 226 7 265 97 248 231 209 214 215 212
352 339 305 272 249 257 320 338 122 39 348 303 245 204 128 352 273 49 132 81 164 189 228 243 242 189 218 249 225 291 50 53 75 118 74 209 170 282 191 211 269 199 219 223 221
347 320 259 210 235 220 334 18 42 121 341 224 223 186 168 239 256 142 174 197 203 19 351 320 302 263 227 314 345 58 46 2 0 15 227 340 113 257 275 222 230 280 257 259 222
344 314 259 240 229 253 23 56 71 248 248 288 145 59 201 167 245 141 111 218 225 85 40 44 355 354 349 207 189 356 131 143 205 243 267 317 281 296 326 69 176 151 246 320 290
344 321 272 285 232 237 71 47 216 218 278 307 30 85 307 322 162 121 176 204 226 172 170 163 278 302 224 291 128 186 24 178 105 14 52 298 308 337 56 60 59 112 46 7 334
339 327 288 261 130 117 72 237 247 212 315 305 75 151 22 339 137 122 234 227 130 175 164 213 25 277 295 34 15 85 157 31 7 81 351 327 320 241 61 167 207 62 71 63 51
3 30 332 160 117 51 142 237 271 261 167 264 197 69 41 352 57 65 239 300 181 166 143 110 101 287 27 10 274 10 15 53 111 103 147 124 273 220 225 248 129 123 86 114 124
2 51 106 162 49 48 203 210 273 304 12 219 105 99 106 22 29 22 168 204 200 182 82 14 122 289 221 288 349 26 107 116 110 255 49 143 276 253 245 229 256 156 127 135 107
23 263 252 202 87 329 307 299 297 332 310 315 123 110 240 122 101 329 304 352 50 83 144 181 17 14 350 359 4 48 336 108 97 77 194 118 262 318 319 296 280 154 151 175 155
26 359 332 35 50 82 354 318 330 309 273 354 38 65 61 63 9 81 360 350 2 62 64 81 103 143 175 217 204 320 346 79 116 112 191 215 238 339 307 286 322 156 193 190 179
26 353 166 329 342 354 307 360 340 345 334 15 42 37 155 83 40 19 5 351 24 34 58 93 132 191 222 240 241 255 286 326 187 193 171 236 204 289 304 286 200 195 135 42 300
46 25 352 283 302 341 358 20 360 323 302 336 45 324 102 143 179 189 138 87 265 346 62 13 219 137 314 276 171 274 290 285 207 131 56 108 58 298 303 201 58 48 122 107 83
11 13 100 298 345 24 17 324 328 346 293 349 329 69 44 190 192 209 199 181 194 172 237 142 135 92 257 348 356 342 257 216 240 347 151 153 185 283 42 59 44 67 73 93 104